KD9JOU-13 Weather Reports


Display with metric or nautical units.
time (UTC)temp
F
wind
direction
speed
MPH
gust
MPH
rain 1hr
in
rain 24hr
in
rain mn
in
humidity
%
barometer
mb
20260504081832 62 227 2.0 2.0 0.00 0.00 0.00 61 1010.4
20260504081331 62 236 1.0 3.0 0.00 0.00 0.00 60 1010.4
20260504080831 62 246 1.0 2.0 0.00 0.00 0.00 60 1010.4
20260504080332 62 244 1.0 3.0 0.00 0.00 0.00 60 1010.4
20260504070332 62 230 2.0 4.0 0.00 0.00 0.00 56 1010.5
20260504050331 64 217 3.0 4.0 0.00 0.00 0.00 50 1011.5
20260504045831 64 206 4.0 4.0 0.00 0.00 0.00 50 1011.5
20260504045331 64 212 2.0 3.0 0.00 0.00 0.00 50 1011.5
20260504044831 64 218 2.0 3.0 0.00 0.00 0.00 49 1011.5
20260504044332 64 200 2.0 4.0 0.00 0.00 0.00 49 1011.5
20260504043831 64 205 3.0 4.0 0.00 0.00 0.00 49 1011.7
20260504043331 64 215 2.0 3.0 0.00 0.00 0.00 48 1011.7
20260504042831 63 214 2.0 3.0 0.00 0.00 0.00 48 1011.7
20260504042332 63 213 1.0 2.0 0.00 0.00 0.00 48 1011.7
20260504041832 63 210 2.0 4.0 0.00 0.00 0.00 48 1011.7
20260504041332 63 204 2.0 2.0 0.00 0.00 0.00 48 1011.7
20260504040832 63 215 2.0 3.0 0.00 0.00 0.00 48 1011.8
20260504040331 63 211 1.0 2.0 0.00 0.00 0.00 48 1011.8
20260504035831 63 210 2.0 3.0 0.00 0.00 0.00 48 1011.9
20260504035331 62 204 1.0 2.0 0.00 0.00 0.00 48 1012.0
20260504034831 62 226 0.0 2.0 0.00 0.00 0.00 48 1012.0
20260504034331 62 221 0.0 1.0 0.00 0.00 0.00 48 1012.1
20260504033831 62 188 1.0 3.0 0.00 0.00 0.00 48 1012.2
20260504033331 62 221 1.0 3.0 0.00 0.00 0.00 48 1012.2
20260504032831 62 236 1.0 2.0 0.00 0.00 0.00 48 1012.2
20260504032332 62 221 0.0 2.0 0.00 0.00 0.00 48 1012.3
20260504031831 62 221 1.0 2.0 0.00 0.00 0.00 48 1012.3
20260504031331 62 230 0.0 2.0 0.00 0.00 0.00 48 1012.4
20260504030831 62 221 1.0 2.0 0.00 0.00 0.00 48 1012.4
20260504030331 62 216 1.0 2.0 0.00 0.00 0.00 49 1012.4
20260504025832 62 243 0.0 1.0 0.00 0.00 0.00 49 1012.4
20260504025332 61 237 1.0 3.0 0.00 0.00 0.00 49 1012.4
20260504024832 61 0 0.0 0.0 0.00 0.00 0.00 50 1012.5
20260504024332 61 237 0.0 2.0 0.00 0.00 0.00 50 1012.5
20260504023831 61 0 0.0 0.0 0.00 0.00 0.00 50 1012.5
20260504023331 62 0 0.0 0.0 0.00 0.00 0.00 50 1012.6
20260504022831 62 0 0.0 0.0 0.00 0.00 0.00 50 1012.6
20260504022337 62 0 0.0 0.0 0.00 0.00 0.00 50 1012.6
20260504021831 62 0 0.0 0.0 0.00 0.00 0.00 49 1012.5
20260504021331 62 225 0.0 1.0 0.00 0.00 0.00 49 1012.5
20260504020832 61 0 0.0 0.0 0.00 0.00 0.00 49 1012.5
20260504020331 61 0 0.0 0.0 0.00 0.00 0.00 51 1012.5
20260504015831 62 0 0.0 0.0 0.00 0.00 0.00 50 1012.5
20260504015331 62 78 1.0 2.0 0.00 0.00 0.00 49 1012.6
20260504014831 62 0 0.0 0.0 0.00 0.00 0.00 49 1012.6
20260504014331 63 0 0.0 0.0 0.00 0.00 0.00 48 1012.6
20260504013831 64 0 0.0 0.0 0.00 0.00 0.00 46 1012.5
20260504013331 64 0 0.0 0.0 0.00 0.00 0.00 48 1012.6
20260504012831 65 0 0.0 0.0 0.00 0.00 0.00 44 1012.6
20260504012331 65 0 0.0 0.0 0.00 0.00 0.00 43 1012.6
20260504011831 65 0 0.0 0.0 0.00 0.00 0.00 42 1012.6
20260504011331 66 0 0.0 0.0 0.00 0.00 0.00 42 1012.6
20260504010831 66 0 0.0 0.0 0.00 0.00 0.00 41 1012.6
20260504010332 66 223 0.0 1.0 0.00 0.00 0.00 41 1012.5
20260504005831 66 200 0.0 1.0 0.00 0.00 0.00 40 1012.5
20260504005331 66 198 0.0 2.0 0.00 0.00 0.00 41 1012.4
20260504004831 67 210 0.0 1.0 0.00 0.00 0.00 40 1012.2
20260504004331 67 240 0.0 2.0 0.00 0.00 0.00 40 1012.2
20260504003831 67 231 0.0 2.0 0.00 0.00 0.00 39 1012.1
20260504003331 67 0 0.0 0.0 0.00 0.00 0.00 39 1012.0
20260504002831 67 0 0.0 0.0 0.00 0.00 0.00 39 1012.0
20260504002331 68 0 0.0 0.0 0.00 0.00 0.00 39 1012.0
20260504001831 68 0 0.0 0.0 0.00 0.00 0.00 39 1012.0
20260504001331 68 235 0.0 2.0 0.00 0.00 0.00 38 1012.0
20260504000831 68 239 0.0 2.0 0.00 0.00 0.00 38 1012.1
20260504000332 69 243 1.0 3.0 0.00 0.00 0.00 37 1012.1
20260503235831 69 228 2.0 3.0 0.00 0.00 0.00 37 1011.9
20260503235331 69 229 1.0 3.0 0.00 0.00 0.00 37 1011.9
20260503234832 69 227 0.0 2.0 0.00 0.00 0.00 36 1011.9
20260503234331 69 237 1.0 3.0 0.00 0.00 0.00 36 1011.8
20260503233831 69 220 2.0 3.0 0.00 0.00 0.00 35 1011.8
20260503233332 69 219 2.0 3.0 0.00 0.00 0.00 35 1011.7
20260503232831 70 221 3.0 5.0 0.00 0.00 0.00 34 1011.9
20260503232332 70 216 1.0 3.0 0.00 0.00 0.00 35 1012.0
20260503231831 70 219 2.0 4.0 0.00 0.00 0.00 34 1012.0
20260503231332 70 223 2.0 3.0 0.00 0.00 0.00 35 1012.1
20260503230831 70 237 2.0 5.0 0.00 0.00 0.00 35 1012.2
20260503230331 70 206 2.0 4.0 0.00 0.00 0.00 36 1012.3
20260503225831 70 229 1.0 2.0 0.00 0.00 0.00 35 1012.4
20260503225331 70 206 2.0 4.0 0.00 0.00 0.00 35 1012.5
20260503224832 70 225 1.0 3.0 0.00 0.00 0.00 35 1012.5
20260503224331 70 231 2.0 4.0 0.00 0.00 0.00 34 1012.6
20260503223831 70 213 2.0 4.0 0.00 0.00 0.00 34 1012.5
20260503223331 70 217 2.0 4.0 0.00 0.00 0.00 34 1012.5
20260503222831 70 214 2.0 3.0 0.00 0.00 0.00 35 1012.5
20260503222331 70 209 2.0 4.0 0.00 0.00 0.00 34 1012.8
20260503221831 70 206 1.0 3.0 0.00 0.00 0.00 34 1013.0
20260503221331 70 224 2.0 4.0 0.00 0.00 0.00 35 1013.0
20260503220831 70 222 1.0 3.0 0.00 0.00 0.00 36 1012.9
20260503220331 69 218 2.0 4.0 0.00 0.00 0.00 34 1013.0
20260503215831 69 178 1.0 5.0 0.00 0.00 0.00 35 1013.0
20260503215331 69 216 2.0 3.0 0.00 0.00 0.00 35 1013.2
20260503214831 69 225 0.0 2.0 0.00 0.00 0.00 35 1013.4
20260503214331 69 223 3.0 5.0 0.00 0.00 0.00 34 1013.5
20260503213831 69 223 2.0 4.0 0.00 0.00 0.00 36 1013.6
20260503213331 69 227 2.0 4.0 0.00 0.00 0.00 36 1013.8
20260503212831 69 221 3.0 4.0 0.00 0.00 0.00 38 1013.9
20260503212331 69 252 0.0 2.0 0.00 0.00 0.00 38 1013.9
20260503211832 69 230 2.0 3.0 0.00 0.00 0.00 37 1014.0
20260503211331 69 237 2.0 4.0 0.00 0.00 0.00 37 1014.1
20260503210831 68 206 1.0 3.0 0.00 0.00 0.00 38 1014.2
20260503210331 68 225 2.0 3.0 0.00 0.00 0.00 37 1014.3
20260503205831 68 230 2.0 4.0 0.00 0.00 0.00 38 1014.6
20260503205331 68 230 2.0 3.0 0.00 0.00 0.00 38 1014.8
20260503204831 68 221 1.0 3.0 0.00 0.00 0.00 39 1014.9
20260503204331 68 214 2.0 3.0 0.00 0.00 0.00 40 1015.0
20260503203831 68 207 2.0 3.0 0.00 0.00 0.00 40 1015.2
20260503203331 68 207 1.0 3.0 0.00 0.00 0.00 40 1015.3
20260503202831 68 212 1.0 3.0 0.00 0.00 0.00 41 1015.5
20260503202331 67 235 1.0 4.0 0.00 0.00 0.00 41 1015.7
20260503201831 67 245 2.0 4.0 0.00 0.00 0.00 40 1015.9
20260503201331 67 228 2.0 3.0 0.00 0.00 0.00 40 1016.0
20260503200831 67 242 3.0 4.0 0.00 0.00 0.00 41 1015.9
20260503200332 67 220 2.0 3.0 0.00 0.00 0.00 39 1016.0
20260503195831 67 222 2.0 3.0 0.00 0.00 0.00 41 1016.1
20260503195332 67 252 0.0 3.0 0.00 0.00 0.00 41 1016.3
20260503194831 67 236 2.0 3.0 0.00 0.00 0.00 40 1016.4
20260503194331 67 245 2.0 4.0 0.00 0.00 0.00 41 1016.5
20260503193831 67 222 2.0 4.0 0.00 0.00 0.00 40 1016.8
20260503193331 66 257 4.0 5.0 0.00 0.00 0.00 41 1016.8
20260503192831 66 243 2.0 4.0 0.00 0.00 0.00 42 1016.8
20260503192331 66 225 1.0 4.0 0.00 0.00 0.00 41 1016.9
20260503191831 66 215 3.0 4.0 0.00 0.00 0.00 41 1016.9
20260503191331 65 236 2.0 4.0 0.00 0.00 0.00 43 1017.1
20260503190832 65 216 3.0 5.0 0.00 0.00 0.00 43 1017.3
20260503190333 65 213 4.0 5.0 0.00 0.00 0.00 42 1017.4
20260503185831 65 239 2.0 4.0 0.00 0.00 0.00 45 1017.5
20260503185331 65 212 2.0 4.0 0.00 0.00 0.00 42 1017.6
20260503184831 65 221 3.0 4.0 0.00 0.00 0.00 43 1017.5
20260503184331 65 221 3.0 4.0 0.00 0.00 0.00 43 1017.7
20260503183831 65 206 3.0 4.0 0.00 0.00 0.00 43 1017.8
20260503183332 65 205 2.0 3.0 0.00 0.00 0.00 43 1017.9
20260503182831 65 227 2.0 3.0 0.00 0.00 0.00 44 1017.9
20260503182331 65 209 2.0 4.0 0.00 0.00 0.00 44 1017.9
20260503181832 65 219 2.0 4.0 0.00 0.00 0.00 44 1018.1
20260503181332 64 198 2.0 4.0 0.00 0.00 0.00 45 1018.1
20260503180831 64 202 1.0 2.0 0.00 0.00 0.00 44 1018.3
20260503180331 64 204 3.0 4.0 0.00 0.00 0.00 44 1018.4
20260503175832 64 223 0.0 2.0 0.00 0.00 0.00 46 1018.6
20260503175334 64 209 2.0 3.0 0.00 0.00 0.00 45 1018.7
20260503174831 63 187 2.0 3.0 0.00 0.00 0.00 45 1019.0
20260503174331 63 204 2.0 4.0 0.00 0.00 0.00 47 1019.1
20260503173831 63 206 3.0 4.0 0.00 0.00 0.00 46 1019.1
20260503173331 63 209 4.0 5.0 0.00 0.00 0.00 46 1019.2
20260503172831 63 194 1.0 3.0 0.00 0.00 0.00 48 1019.2
20260503172331 63 222 2.0 3.0 0.00 0.00 0.00 48 1019.4
20260503171831 63 204 2.0 4.0 0.00 0.00 0.00 47 1019.3
20260503171332 63 217 2.0 4.0 0.00 0.00 0.00 47 1019.4
20260503170831 63 219 0.0 2.0 0.00 0.00 0.00 48 1019.4
20260503170331 63 185 3.0 4.0 0.00 0.00 0.00 45 1019.5
20260503150831 58 228 2.0 3.0 0.00 0.00 0.00 50 1020.6
20260503150331 58 239 2.0 3.0 0.00 0.00 0.00 50 1020.7
20260503131331 48 0 0.0 0.0 0.00 0.00 0.00 90 1021.1
20260503130831 47 225 0.0 2.0 0.00 0.00 0.00 90 1021.0
20260503130331 47 0 0.0 0.0 0.00 0.00 0.00 92 1021.1
20260503110331 39 0 0.0 0.0 0.00 0.00 0.00 95 1020.6
20260503090331 39 178 0.0 2.0 0.00 0.00 0.00 95 1020.7